Terminal Aerodrome Forecast
Issued by NWS Mt. Holly, NJ

Home | Current Version | Previous Version | Text Only | Print | Product List | Glossary On
Versions: 1 2 3 4 5 6 7 8 9 10 11 12 13 14 15 16 17 18 19 20 21 22 23 24 25 26 27 28
000
FTUS41 KPHI 051120
TAFRDG
TAF
KRDG 051120Z 0512/0612 33012KT 2SM -SN BR SCT012 OVC025
     FM051400 35012KT 1SM -SN BR OVC012
      TEMPO 0514/0517 1/2SM SN FG VV006
     FM052200 35008KT P6SM OVC025
     FM060200 32005KT P6SM BKN100=

USA.gov is the U.S. government's official web portal to all federal, state and local government web resources and services.